Wind_Speed
23 23 23 23 23 22 23 23 24 24 26 27 28 29 29 29 29 27 24 22 21 21 21 20 19 18 17 18 17 16 18 18 18 14 19 25 20 18 20 12 12 22 19 16 18 17 18 18 19 19 14 11 9 9 10 10 7 6 5 6 4 1 3 8 4 6 3 7 7 7 5 5 8 8 6 6 9 11 11 11 8 7 8 9 16 25 28 29
24 24 24 24 24 24 24 24 25 26 27 29 30 30 30 30 29 27 25 23 22 21 20 20 19 19 17 17 16 14 16 18 20 20 27 31 21 18 23 17 14 21 23 19 21 21 19 17 19 18 12 9 9 9 10 9 8 6 6 8 3 3 8 8 5 5 3 4 6 8 7 5 7 7 4 6 9 10 10 12 12 10 11 14 20 27 29 29
25 25 25 25 25 25 24 26 27 28 28 30 31 30 30 30 28 26 26 25 22 21 20 21 20 19 17 15 13 11 14 18 18 22 29 31 27 28 24 18 16 21 24 22 22 22 19 18 19 17 12 9 9 11 10 8 8 8 8 8 1 4 12 4 4 2 5 4 3 8 7 6 7 7 4 5 9 9 8 10 13 13 13 17 21 25 28 29
26 26 26 26 26 26 26 28 30 32 32 33 32 31 32 30 28 27 27 25 23 22 21 21 20 19 17 14 9 8 13 16 13 10 13 17 21 29 27 21 20 22 24 21 20 20 18 18 19 16 13 10 10 11 11 9 8 8 9 7 2 7 9 1 4 2 4 4 3 7 6 7 7 6 4 5 7 7 7 9 11 14 15 19 21 23 26 26
26 26 27 27 28 28 28 31 33 35 36 35 33 32 32 31 29 28 26 25 24 24 23 21 20 18 16 11 5 6 11 9 1 7 5 6 9 20 26 24 24 24 24 21 19 20 18 17 17 15 12 10 11 10 11 12 9 7 10 10 6 7 3 1 1 2 1 3 1 4 4 6 8 7 6 5 5 3 6 11 12 14 17 20 22 21 23 24
26 27 28 28 29 30 30 33 35 37 38 37 34 32 33 32 30 28 27 27 26 26 24 21 19 17 14 7 3 7 10 5 6 10 8 11 12 11 17 21 26 26 24 21 20 19 17 17 15 13 11 11 13 12 11 14 11 9 9 9 10 7 1 2 5 5 4 4 2 1 2 4 7 7 7 6 4 5 5 11 14 15 18 19 20 21 23 24
27 27 28 29 29 30 33 36 37 39 39 37 36 36 36 33 29 28 28 29 28 27 24 20 18 14 9 4 5 8 11 12 8 3 3 5 9 6 10 20 27 26 25 22 20 18 17 17 16 13 12 12 14 14 13 14 14 12 10 9 9 8 4 4 3 9 9 6 4 1 1 5 6 6 8 8 6 7 6 9 14 16 20 20 20 21 22 23
27 28 29 29 30 34 36 38 38 40 40 38 39 38 36 32 29 30 30 30 28 25 22 17 15 10 4 4 8 9 11 18 18 10 8 8 6 4 11 21 26 26 26 24 21 18 17 18 18 14 13 13 13 14 14 13 14 15 13 10 8 7 7 9 10 12 11 7 5 5 5 6 6 4 7 9 8 9 7 8 15 17 19 20 20 22 21 21
28 29 29 30 34 37 39 39 40 41 40 39 40 39 35 31 30 31 31 29 25 20 17 13 13 6 6 6 8 9 12 15 14 11 10 9 9 11 17 21 24 26 24 24 23 20 17 16 18 16 14 13 13 13 14 13 11 12 15 13 10 9 8 9 11 12 10 7 6 8 8 7 7 5 6 9 9 11 10 10 15 17 18 19 19 20 20 21
29 30 31 34 37 40 40 40 41 41 41 41 41 38 33 30 31 32 29 25 20 16 13 11 8 5 9 9 9 9 8 6 6 9 11 11 13 19 21 21 24 26 23 23 23 21 17 15 17 15 13 13 14 14 14 13 10 9 13 15 14 12 10 10 11 11 10 9 10 10 9 9 8 7 6 9 11 11 12 13 16 17 18 18 18 19 19 20
31 32 34 37 40 41 41 41 42 42 42 42 40 35 30 30 32 29 24 21 18 15 11 10 7 10 13 11 11 8 2 3 5 6 9 12 17 22 23 22 24 27 24 21 22 23 21 18 16 12 11 11 12 14 14 13 11 9 10 12 16 15 12 13 13 12 11 10 12 12 11 10 9 8 6 10 13 12 13 15 17 17 17 18 19 19 17 17
33 35 37 40 42 42 43 43 43 43 43 41 37 31 28 31 30 24 20 18 17 13 9 9 9 12 13 10 14 15 6 3 3 4 6 10 17 23 23 22 24 27 24 20 20 23 23 21 18 14 12 10 11 12 11 13 14 12 11 10 13 14 14 16 14 14 13 11 12 12 11 11 11 11 8 10 13 13 14 15 16 16 15 17 18 17 16 16
35 37 38 41 42 43 44 44 44 44 43 39 33 28 29 31 25 19 16 15 14 11 7 8 11 12 12 9 14 22 19 13 7 6 7 9 15 20 20 21 23 24 24 21 19 22 22 21 19 17 14 10 11 7 3 9 14 14 14 10 10 12 13 16 16 15 16 13 13 11 8 9 12 13 11 10 13 13 14 14 14 14 13 14 16 16 16 17
35 38 39 41 42 42 44 45 44 44 41 35 29 28 30 27 20 14 13 13 12 7 5 9 12 11 10 10 13 16 18 18 15 12 9 9 14 18 19 20 22 22 22 21 19 19 20 21 18 15 14 12 11 8 4 8 12 12 13 10 10 10 10 15 17 17 17 13 14 13 7 7 11 16 15 12 14 14 13 14 12 11 12 12 14 16 17 18
36 38 39 40 41 42 44 45 45 43 38 32 28 28 27 21 15 11 8 9 9 2 7 10 12 10 7 13 16 14 15 15 17 18 13 12 14 16 18 19 20 21 20 20 18 17 18 20 17 12 13 13 13 12 9 8 10 11 11 10 11 10 10 14 17 19 17 14 16 15 7 7 10 15 17 13 13 13 13 15 14 14 15 13 12 14 15 17
38 38 39 40 41 42 44 44 44 40 34 31 29 26 22 16 11 8 6 7 5 6 10 10 11 11 8 7 5 8 15 16 17 19 16 15 15 14 17 19 19 20 19 18 16 14 17 17 13 11 12 13 13 11 7 8 10 10 11 11 12 13 11 11 13 17 17 14 16 15 9 7 7 9 15 15 14 14 12 14 17 17 17 16 12 11 12 14
38 39 39 40 41 42 43 44 42 36 32 31 27 21 16 12 8 5 5 4 2 6 8 7 6 9 9 7 2 6 15 17 17 19 19 18 15 14 17 16 16 18 17 16 14 12 15 13 10 11 11 11 12 11 9 10 11 10 11 11 12 14 13 10 11 14 17 16 16 16 13 10 8 9 13 16 15 14 12 11 15 15 14 16 13 12 12 13
39 39 40 41 41 42 42 43 40 32 30 28 23 18 14 10 7 5 4 5 5 6 9 8 6 7 7 10 9 6 11 17 17 19 21 20 16 13 16 15 13 16 15 13 13 13 13 11 10 10 11 12 13 13 12 12 12 12 12 11 12 13 14 14 12 13 17 17 15 16 14 13 12 11 14 15 13 13 11 9 11 14 14 15 14 14 14 14
39 39 40 41 42 42 41 42 36 28 26 24 23 18 13 10 7 8 9 9 8 7 6 4 10 7 5 6 13 5 2 11 17 18 21 23 17 14 16 15 14 16 15 11 13 15 11 10 11 12 12 15 16 16 16 15 14 15 14 12 13 13 13 13 11 12 16 17 16 16 14 14 15 13 12 14 14 13 11 10 10 12 14 15 15 14 14 15
38 39 41 41 42 41 41 40 31 24 23 23 27 19 8 5 4 5 4 8 10 13 14 9 13 14 12 7 8 6 3 7 14 17 22 25 19 16 16 15 15 15 14 13 14 15 12 11 13 15 15 18 20 20 19 18 17 16 14 14 15 15 12 11 11 11 13 13 16 17 16 16 16 16 14 13 14 14 13 12 10 11 13 14 15 15 15 14
38 39 40 41 42 41 40 36 25 20 22 22 23 13 4 9 8 6 9 13 15 18 23 22 19 20 21 15 6 5 5 8 14 16 22 26 21 16 14 16 16 14 15 17 14 13 13 13 16 19 19 19 20 21 19 19 20 17 12 12 14 14 13 13 15 14 12 10 12 15 17 17 16 17 17 16 15 15 15 14 12 13 14 14 16 16 14 11
38 39 40 41 41 41 39 31 19 16 19 18 14 9 8 10 8 10 12 14 17 17 21 24 23 21 23 24 17 8 6 11 16 16 21 25 21 17 15 17 17 14 16 17 13 12 14 15 19 21 19 19 18 20 21 20 20 16 11 11 11 11 12 14 16 16 12 8 9 14 14 14 15 16 16 16 15 14 15 14 12 12 13 14 16 15 14 14
37 38 40 41 41 41 37 25 15 14 15 13 11 10 11 11 10 13 11 11 17 18 18 21 23 22 21 22 22 17 12 12 15 17 23 24 20 19 17 18 18 16 18 19 15 13 13 14 19 20 18 20 19 19 21 19 16 14 11 11 10 11 12 11 12 16 14 9 10 14 12 11 13 14 14 15 15 13 14 15 13 12 13 13 16 14 15 17
37 38 38 40 40 40 36 23 12 14 14 9 7 12 14 14 13 14 11 9 14 15 17 22 20 19 21 19 19 21 16 14 14 17 25 24 20 18 18 18 19 17 17 22 22 18 14 12 17 21 19 20 20 19 19 15 12 15 16 13 11 14 15 11 11 15 15 13 13 12 10 10 12 15 14 14 15 13 14 16 14 12 12 13 17 17 17 18
37 37 38 39 37 38 35 19 9 17 17 8 8 15 17 15 14 14 11 7 9 10 13 17 14 15 20 18 17 18 16 15 15 15 21 25 22 18 16 15 15 17 20 25 23 18 16 13 15 21 20 20 20 17 18 15 11 14 19 18 15 16 16 14 14 12 10 12 13 12 10 9 12 17 16 13 14 16 16 16 15 12 12 13 16 18 19 19
38 37 38 37 35 37 29 12 11 20 16 7 13 18 17 15 14 12 8 6 9 8 9 10 10 11 15 16 15 15 15 15 17 16 19 25 24 18 15 12 11 17 21 20 16 11 14 16 15 18 21 22 20 17 18 18 12 10 15 19 20 19 17 16 16 12 8 8 11 14 13 8 10 15 16 15 17 18 17 17 17 13 12 13 14 16 18 19
39 37 39 37 34 32 21 9 14 18 10 10 18 20 17 15 13 10 5 6 8 6 9 7 6 8 11 14 17 15 9 9 16 20 20 25 24 18 17 16 12 15 16 13 12 10 15 20 17 17 20 19 17 15 17 18 13 9 12 17 20 21 19 17 16 12 9 8 10 15 15 10 10 12 15 18 19 18 16 15 15 13 13 14 14 15 17 18
39 38 38 36 31 23 13 13 16 13 9 15 21 19 16 15 12 8 6 6 3 7 8 4 4 5 7 12 19 17 6 6 16 20 21 25 25 19 18 21 17 17 18 14 12 13 16 21 20 19 18 15 15 15 16 18 15 11 11 13 15 18 20 18 15 11 10 10 10 13 15 12 9 9 13 17 19 17 15 15 16 14 13 13 13 16 18 18
38 38 37 35 29 15 6 12 13 11 12 18 20 19 18 15 10 6 5 6 2 4 3 3 5 7 8 11 18 20 11 8 11 16 22 24 25 19 15 19 20 19 22 19 15 13 14 18 20 19 15 13 15 16 17 18 15 12 13 13 11 12 15 16 14 11 11 12 12 14 16 12 8 9 12 14 15 15 15 16 17 15 13 12 13 15 17 18
38 38 35 31 25 14 7 10 9 11 16 18 20 21 20 13 7 6 8 7 4 2 3 5 5 8 11 11 15 18 18 13 5 12 21 19 22 22 14 16 19 15 18 20 18 16 14 15 17 16 13 13 15 15 17 19 16 13 13 11 9 8 9 10 11 10 11 12 15 18 19 15 10 10 11 12 14 15 14 14 14 15 15 14 14 16 16 17
38 37 31 24 18 13 11 9 10 16 18 19 22 21 15 7 5 9 8 3 3 0 4 6 5 8 13 13 11 15 19 14 7 14 18 15 19 20 14 14 15 12 14 16 17 19 18 15 14 14 15 15 15 15 16 18 17 14 12 9 8 8 8 8 8 10 11 12 14 18 21 19 13 10 10 12 16 18 16 15 16 18 18 18 17 17 15 15
38 33 23 16 12 11 10 11 16 19 18 20 21 15 8 6 8 10 7 4 3 3 5 2 2 2 8 10 10 13 17 14 11 15 18 16 16 17 17 15 12 13 14 13 15 17 18 16 14 14 17 18 15 13 13 15 15 13 11 10 9 8 8 9 10 10 12 11 11 16 19 18 15 12 13 14 15 17 17 16 18 21 22 21 19 16 14 14
36 27 17 12 10 9 10 14 18 19 19 20 16 8 6 8 9 9 10 9 3 9 9 8 10 11 9 9 11 12 16 16 15 16 18 18 16 18 22 21 19 16 12 12 15 14 13 16 18 17 15 18 18 12 11 12 14 14 12 11 10 9 9 10 11 10 11 11 12 15 15 14 14 12 16 19 16 15 16 17 19 21 22 21 19 15 14 15
30 20 14 11 8 8 10 16 18 18 19 16 10 7 9 11 8 11 13 8 8 12 12 14 14 14 12 11 12 12 13 15 18 17 16 18 16 15 20 23 25 19 11 12 12 13 14 14 18 19 13 17 21 16 13 13 13 14 13 12 11 9 9 9 9 10 10 9 13 15 12 12 11 9 13 20 20 17 15 16 18 19 18 18 18 16 16 16
26 17 13 8 5 9 14 17 17 17 16 12 7 8 11 9 8 11 8 8 12 12 15 19 16 13 11 11 14 15 12 12 18 18 14 17 16 15 17 20 25 22 14 13 10 12 17 13 16 21 16 18 23 19 16 14 12 13 12 12 12 11 9 6 7 10 9 8 10 12 10 9 8 7 8 13 18 20 17 15 16 16 16 16 18 18 17 16
23 16 11 6 7 14 17 17 16 15 13 9 7 8 8 8 9 8 4 13 14 14 18 17 12 11 10 9 12 15 10 8 15 17 13 16 17 18 17 15 22 25 17 12 9 10 14 12 15 23 21 20 23 21 19 15 10 10 12 13 12 12 11 7 7 8 7 8 8 9 10 9 7 8 9 9 13 19 20 18 17 16 16 16 16 18 17 15
22 16 10 5 11 18 18 16 15 14 11 6 8 9 8 9 10 10 12 14 15 15 14 11 7 8 10 9 10 14 13 9 12 13 12 15 14 16 19 18 21 27 24 16 10 9 10 10 14 23 24 21 21 22 22 19 13 9 12 14 11 11 11 8 6 6 6 8 7 8 12 11 8 7 9 13 14 15 19 21 18 17 18 17 16 17 18 18
21 17 8 5 15 21 17 15 14 12 8 6 9 10 10 10 11 15 15 14 15 13 11 10 8 11 11 8 6 7 10 11 11 10 10 13 9 3 10 14 12 14 23 20 11 8 10 9 12 22 23 19 19 20 19 19 20 13 11 13 12 10 10 8 7 7 8 8 7 9 11 9 9 8 8 14 16 15 16 18 19 20 20 18 18 19 21 20
19 13 4 10 19 19 16 16 14 8 5 5 6 6 9 11 12 14 14 14 14 11 11 12 11 12 13 12 11 6 3 5 6 8 10 11 6 4 6 2 3 2 7 13 9 9 10 8 9 17 22 19 15 15 14 16 20 17 12 12 11 9 9 9 8 7 7 7 6 9 10 8 9 9 9 11 14 15 15 14 15 17 18 17 17 17 19 18
13 7 5 16 21 19 18 17 10 4 4 5 6 6 9 11 12 13 14 15 12 9 10 14 13 13 13 14 15 8 4 7 9 9 9 3 5 6 9 7 3 2 3 7 11 11 9 8 8 12 19 18 13 13 16 16 17 16 13 12 12 10 8 9 9 8 7 7 6 6 7 7 6 8 9 9 12 14 15 14 13 13 15 16 15 14 15 15
11 6 6 18 21 20 19 12 3 3 5 5 7 8 9 10 11 13 13 13 11 9 11 15 15 14 13 14 14 10 9 10 10 10 10 3 9 5 7 10 8 5 5 6 11 11 7 7 9 10 14 15 14 17 20 20 19 16 13 12 12 12 10 10 10 10 9 7 6 5 5 3 5 3 5 7 10 12 13 13 13 13 14 14 15 15 15 15
8 6 9 16 20 20 15 6 3 5 4 6 8 9 9 8 10 12 12 12 10 9 10 13 15 14 14 13 12 12 12 10 9 10 7 2 8 8 8 10 10 7 6 8 14 13 4 4 9 10 12 14 17 20 20 22 22 19 16 14 12 12 12 10 8 9 9 9 7 6 5 3 8 5 4 4 5 9 12 12 11 12 12 12 14 15 16 17
5 8 9 13 17 18 11 4 5 5 4 8 9 9 9 9 10 12 12 12 10 9 8 9 13 13 13 14 13 14 12 10 13 13 4 4 5 7 9 11 11 7 5 7 12 11 3 4 9 9 10 13 16 19 19 21 21 18 16 15 14 14 13 10 8 6 8 10 9 6 6 4 8 7 5 4 2 6 10 11 10 11 10 10 12 13 13 15
6 8 6 11 17 14 7 5 6 6 6 9 10 9 9 8 9 12 13 12 9 9 10 9 11 12 14 15 14 15 13 11 14 13 7 5 2 6 7 10 11 7 2 3 3 4 4 9 10 8 10 12 13 15 16 18 17 13 14 17 18 18 17 13 9 6 7 10 12 9 7 4 8 7 4 5 7 8 10 12 11 10 9 10 10 7 7 8
8 6 3 10 14 9 4 5 6 7 8 10 11 10 9 7 8 10 13 12 9 10 11 9 11 13 14 14 14 15 15 13 11 7 7 8 2 4 5 7 9 8 7 10 11 6 5 10 10 9 12 12 11 11 11 15 15 11 15 22 22 22 21 15 9 7 7 9 10 9 6 5 9 8 7 7 8 7 10 12 11 9 8 7 7 9 8 6
7 6 6 8 8 6 4 6 7 7 8 9 9 9 9 9 8 8 10 9 9 11 11 8 10 13 12 12 13 13 14 15 13 8 7 9 6 2 3 6 6 7 11 15 11 6 5 8 11 15 14 6 2 3 4 10 15 16 19 23 24 24 22 16 11 9 8 7 8 8 6 9 11 10 8 9 9 7 8 12 12 10 10 10 9 7 6 6
6 6 8 7 6 5 5 6 7 7 9 9 7 7 9 10 8 7 6 5 7 12 10 6 8 11 10 12 13 11 14 16 13 9 8 10 9 4 1 4 4 6 12 12 5 4 6 8 12 19 18 9 4 9 9 6 14 18 22 23 23 24 25 20 14 12 10 8 8 9 7 5 11 12 9 9 10 8 7 10 12 11 9 9 8 5 5 8
6 6 8 8 7 7 7 9 9 10 12 10 6 7 9 9 9 8 6 5 5 8 8 5 7 11 11 11 11 10 14 14 9 10 12 11 12 7 5 4 2 5 9 6 1 3 6 9 13 18 18 12 6 7 10 7 9 12 18 24 25 24 26 24 19 15 13 9 7 11 13 9 7 12 12 10 10 8 7 6 7 7 5 5 5 3 1 6
6 6 7 8 9 9 10 11 11 12 12 9 6 6 7 9 10 8 6 6 4 5 5 6 10 13 11 9 8 8 11 11 8 11 13 11 13 10 3 1 2 3 7 4 1 4 4 6 10 15 18 14 10 8 9 7 7 8 12 18 23 24 25 24 21 19 17 13 8 10 15 14 9 10 12 10 7 4 2 2 3 3 3 4 4 1 4 4
6 5 6 7 9 9 10 10 9 10 9 7 5 4 6 9 10 8 7 7 5 3 3 7 11 13 11 8 7 7 9 9 8 10 12 12 12 10 7 6 6 7 8 5 3 4 3 2 3 7 12 13 11 9 8 7 6 7 7 10 17 23 24 22 21 20 17 15 12 8 9 12 9 6 5 5 4 2 3 3 3 3 4 4 4 4 4 5
10 9 7 7 8 9 9 9 8 8 7 5 4 6 8 9 9 9 8 5 4 5 5 7 10 11 11 9 7 8 9 10 10 11 13 13 11 9 7 8 9 10 8 5 4 4 4 2 2 4 7 10 12 11 10 8 7 9 9 10 12 15 17 17 16 15 13 13 12 9 7 7 5 3 2 1 1 4 5 6 6 7 6 6 6 6 5 5
12 11 8 6 7 9 9 9 8 7 6 4 5 8 10 10 8 9 7 2 3 5 4 5 8 8 9 10 8 7 9 11 12 13 12 13 13 13 10 9 11 9 7 7 6 4 3 4 3 7 6 9 14 14 11 9 8 10 11 12 10 9 11 12 11 11 11 10 8 8 7 6 5 4 6 6 7 7 6 6 6 5 5 6 7 7 6 5
Wind_Direction
358 355 354 353 352 350 349 347 347 349 350 350 348 345 344 343 340 334 327 323 321 318 316 313 310 309 306 308 312 319 322 312 296 264 242 251 245 228 232 246 222 196 182 188 192 185 189 197 198 194 201 206 214 231 213 216 237 242 252 247 239 89 250 270 39 68 77 98 120 139 140 127 126 118 113 138 127 124 130 123 129 135 132 140 141 146 151 155
357 355 354 352 351 349 348 347 347 348 346 346 346 344 342 339 334 329 324 323 319 316 316 314 310 306 304 305 310 324 324 300 281 264 254 255 249 235 228 232 228 192 183 195 194 189 190 191 191 190 200 210 207 220 215 203 219 232 250 250 217 110 235 254 42 56 52 69 113 140 159 145 131 121 134 165 131 134 144 137 148 140 124 134 141 147 151 157
357 355 353 351 350 348 347 347 348 346 344 343 343 341 338 333 327 324 323 322 319 319 318 316 311 306 304 303 313 330 317 296 277 262 259 255 245 239 230 214 211 192 190 198 192 192 195 189 187 189 201 213 207 212 211 195 208 218 239 258 114 184 233 216 81 58 45 29 98 129 152 155 137 133 157 163 137 149 154 144 155 146 137 139 144 151 153 161
356 354 353 351 349 347 347 349 349 348 347 345 342 338 334 329 324 323 323 322 320 321 319 315 309 304 305 305 318 334 305 286 271 267 257 243 235 233 225 210 201 193 196 201 193 194 197 190 189 194 205 216 210 212 214 203 211 217 230 250 164 209 244 146 115 103 49 7 48 107 145 163 143 143 165 158 148 159 159 160 159 149 148 146 150 157 155 163
355 353 351 349 347 347 348 350 350 349 348 345 341 337 333 328 325 324 323 322 320 320 316 310 305 301 305 305 319 320 292 277 300 66 94 164 195 215 214 207 197 192 197 199 194 197 197 193 193 200 211 221 211 210 219 212 219 235 239 249 231 210 235 354 355 51 33 316 30 129 163 152 142 159 171 173 172 136 149 160 153 148 150 151 156 159 157 164
354 352 350 348 346 346 349 350 349 349 347 345 340 335 332 329 326 325 323 321 317 316 311 304 300 297 300 302 306 283 261 265 68 84 94 102 115 177 199 198 194 192 196 197 195 197 197 196 196 202 213 224 217 212 217 212 217 238 242 243 249 241 164 21 326 317 285 286 277 155 113 133 154 175 174 194 191 81 100 142 145 149 148 155 161 161 162 168
353 351 349 346 345 347 350 349 348 348 346 343 339 336 333 330 327 325 322 318 315 312 306 299 294 291 296 289 261 258 240 259 278 176 153 107 115 131 173 187 190 193 200 197 194 197 197 199 199 204 212 221 222 217 216 214 217 235 249 238 238 243 184 135 258 265 262 266 274 260 171 182 180 180 171 194 190 113 99 130 141 146 148 160 166 167 168 167
351 350 347 345 346 348 349 348 348 347 345 341 339 337 334 331 328 324 320 316 313 308 301 293 287 279 264 260 253 246 232 252 258 216 211 235 211 129 157 181 189 196 205 200 196 198 198 202 201 205 215 219 225 220 216 219 220 227 245 250 237 233 203 182 206 233 244 249 260 240 223 208 186 194 180 183 181 146 134 135 138 144 151 162 168 168 169 167
350 348 346 347 348 349 349 348 347 345 343 340 338 336 333 331 327 323 319 314 311 304 299 287 279 252 200 238 252 254 247 249 246 204 200 224 198 165 166 179 191 200 207 204 201 201 200 205 204 210 222 223 229 227 219 222 225 222 235 248 245 239 224 213 219 226 236 241 244 232 224 215 189 205 200 177 177 159 157 155 144 150 157 161 167 169 169 170
348 347 347 349 349 350 349 348 346 344 342 339 337 335 332 330 326 322 318 312 309 302 295 279 265 197 193 226 237 248 256 244 227 201 208 215 185 171 178 185 190 199 208 206 204 205 205 207 206 214 230 232 233 232 224 224 227 225 237 246 246 247 238 233 235 231 236 235 237 236 228 218 190 196 206 172 171 163 162 165 154 157 163 163 168 169 171 174
348 347 348 349 350 350 349 347 345 343 341 338 335 334 332 329 325 322 317 312 310 302 288 268 230 185 203 227 232 232 219 193 211 203 209 216 198 185 192 195 190 197 207 207 207 208 208 211 209 213 228 232 237 236 231 229 228 225 235 244 242 245 244 240 239 233 234 233 230 234 236 226 192 198 207 166 164 165 165 166 163 166 165 166 169 169 173 177
349 350 351 351 350 349 348 346 344 343 340 336 335 333 331 328 325 321 317 316 314 302 278 247 204 189 215 234 234 232 233 219 236 247 223 213 203 196 200 200 195 199 204 207 209 208 209 213 212 216 220 223 235 238 234 229 227 231 234 244 244 241 241 236 234 229 226 227 221 224 235 226 203 202 195 160 158 165 170 167 168 172 169 168 169 169 174 178
351 352 352 352 350 349 347 345 343 342 338 336 335 333 330 326 323 320 319 325 322 302 263 218 189 197 225 242 239 236 242 245 254 271 243 213 200 199 204 202 199 203 207 210 210 208 211 214 216 222 223 221 226 229 270 236 224 229 233 239 246 242 237 228 226 225 223 223 215 215 229 222 206 196 185 167 162 169 175 170 172 175 172 174 173 171 175 179
352 353 353 352 349 347 346 343 342 341 338 335 334 331 328 324 320 320 324 333 329 299 221 185 182 199 226 250 256 244 241 246 244 240 232 212 197 194 199 198 199 205 211 217 215 210 210 214 219 226 226 231 238 227 234 237 219 222 228 228 236 241 235 220 214 213 217 216 210 215 224 223 206 183 179 177 169 177 179 165 171 183 175 179 181 175 176 179
353 353 353 352 349 346 344 342 342 341 338 335 333 329 325 319 314 320 334 341 336 297 167 167 190 213 243 258 262 248 233 238 233 224 219 208 196 191 193 194 199 204 210 219 219 211 207 211 217 224 222 224 244 241 224 226 218 214 223 224 224 234 243 227 209 204 210 205 202 213 216 227 217 174 170 180 173 183 187 166 172 193 180 176 189 184 181 179
353 353 353 351 348 345 343 341 342 340 337 335 331 327 322 313 307 318 343 348 9 108 148 169 196 223 271 279 244 212 215 221 219 214 209 205 200 193 192 193 195 198 204 212 216 208 203 210 215 224 223 214 228 239 227 224 217 209 218 227 221 219 233 232 203 197 208 203 197 210 217 221 213 163 168 179 176 185 196 180 178 191 179 171 184 188 190 186
352 352 351 350 348 344 342 341 342 341 337 335 331 327 320 306 289 302 339 340 44 134 189 226 204 213 259 277 211 199 209 209 209 204 199 202 206 194 186 189 189 190 194 200 210 205 198 207 211 215 223 216 214 218 222 220 210 205 211 224 229 220 222 223 195 187 203 208 199 204 217 221 197 172 182 179 179 190 197 193 184 186 178 169 177 184 194 197
351 351 350 350 348 344 342 341 341 342 339 336 335 328 314 297 272 271 276 234 214 208 228 254 231 214 246 241 235 245 211 199 195 194 192 195 204 194 181 185 181 179 184 188 202 203 193 200 208 210 214 216 212 207 216 217 208 208 206 214 229 226 220 218 202 183 195 209 208 202 208 219 205 186 187 178 186 201 195 201 196 186 181 171 176 186 192 200
350 350 350 349 347 344 341 340 342 346 342 341 345 329 293 275 251 237 244 227 213 226 241 205 195 225 318 233 221 238 190 186 185 186 189 189 195 193 182 185 181 177 185 184 190 197 191 194 207 213 210 209 211 209 215 223 221 216 211 213 220 226 227 220 211 188 189 204 213 213 211 213 212 204 197 185 191 205 199 207 207 188 185 177 177 188 193 201
350 350 349 348 347 343 341 341 344 349 346 339 338 325 281 295 280 225 264 259 241 254 278 268 219 245 293 289 220 195 144 172 186 191 189 185 187 191 186 187 186 184 195 191 184 190 194 202 208 212 211 207 209 213 216 226 233 228 221 220 218 223 226 217 217 200 190 205 211 215 221 215 211 213 217 204 195 206 208 207 205 195 191 182 180 190 193 201
350 349 349 347 346 343 341 343 345 353 352 335 329 332 14 6 337 328 331 295 268 257 265 266 250 251 261 267 255 194 203 204 199 199 189 182 184 190 186 188 191 192 200 197 186 188 199 214 215 211 213 211 209 213 217 223 232 236 232 231 224 222 222 211 208 197 187 207 214 212 222 221 212 212 217 209 198 204 210 206 203 203 197 181 180 188 187 199
350 349 348 346 346 343 340 343 346 351 350 336 336 7 21 2 336 321 316 296 283 264 255 257 254 251 249 251 249 243 254 218 199 198 186 179 184 191 184 188 197 195 196 198 190 190 205 220 219 211 212 216 212 211 217 221 227 232 229 235 233 219 223 218 206 200 191 201 225 220 224 226 219 218 217 212 204 201 205 207 204 204 202 185 177 180 183 197
349 349 347 345 344 341 340 341 341 343 340 336 357 18 359 343 331 315 299 286 287 272 249 243 240 238 237 239 235 229 238 224 203 194 184 180 188 194 189 191 201 198 194 202 199 194 207 218 217 213 209 213 216 211 212 219 224 228 223 224 231 219 219 220 205 202 198 204 233 231 229 229 226 227 224 225 221 200 195 208 207 203 205 185 170 174 188 198
348 347 346 345 341 339 340 334 326 341 333 314 348 7 352 335 328 321 304 277 279 275 250 233 226 229 228 223 216 215 223 227 217 195 182 185 191 193 199 197 200 205 199 204 208 208 214 209 207 212 208 208 215 212 209 214 218 225 226 222 226 224 222 227 220 207 200 210 228 235 238 230 224 226 222 225 227 205 193 208 212 205 203 178 165 179 194 198
346 345 344 344 340 337 336 326 330 345 327 303 345 352 343 333 331 325 309 275 264 263 241 224 213 222 223 211 202 205 214 223 225 204 182 190 194 188 202 203 200 212 205 204 212 216 221 212 197 205 207 206 212 212 207 212 217 219 224 225 228 233 230 233 236 221 208 215 213 217 237 232 217 224 224 218 220 208 193 203 213 206 199 184 175 184 190 193
344 343 343 343 340 337 335 330 346 335 317 333 357 341 332 333 333 318 294 275 269 237 189 184 184 191 200 199 189 191 213 220 219 213 187 191 201 193 199 203 202 215 209 204 214 221 222 217 202 201 205 204 210 215 207 209 222 220 215 218 225 237 240 237 236 226 221 231 217 211 228 242 222 222 224 222 224 214 194 197 210 203 195 196 189 186 186 187
342 341 342 341 338 338 335 322 329 326 317 347 343 330 327 332 328 314 278 264 266 185 148 157 167 166 179 185 174 177 211 202 198 214 199 189 200 203 205 203 199 214 210 203 214 218 215 215 206 199 205 205 207 216 206 202 219 228 212 210 216 228 235 237 238 234 231 245 243 224 222 236 234 223 221 222 226 216 193 195 210 203 196 202 199 188 184 186
341 340 341 339 334 333 313 289 310 321 327 334 328 323 324 322 311 294 270 273 263 133 134 124 119 167 180 172 179 192 219 158 179 205 197 189 197 203 212 209 204 209 209 209 215 210 208 213 209 198 203 210 207 209 202 200 215 227 219 215 214 219 224 228 235 240 238 242 247 231 223 231 236 225 223 225 225 211 192 201 215 209 198 202 209 196 183 186
340 340 341 337 331 331 281 268 292 312 323 326 322 320 315 305 296 272 249 263 252 121 128 133 140 186 180 166 191 210 223 201 193 190 184 191 200 206 218 215 211 211 212 219 224 215 205 210 215 207 203 214 209 202 201 204 213 221 222 221 214 216 220 222 228 235 237 240 240 231 227 237 242 227 222 224 224 210 201 209 210 206 197 195 216 211 188 185
340 339 341 336 328 333 309 273 288 323 329 325 319 316 306 288 267 240 232 244 253 94 110 158 163 176 180 180 197 211 217 222 211 175 179 187 198 208 222 218 220 221 215 221 227 230 218 201 213 218 208 212 211 200 204 210 209 211 219 214 206 214 217 219 224 228 235 238 234 230 230 236 241 231 222 221 221 214 210 206 197 199 195 188 212 219 196 186
339 339 340 335 323 319 310 296 325 334 327 321 317 311 294 264 242 242 230 238 279 36 121 160 156 167 188 199 199 201 211 218 195 176 183 183 189 203 212 210 219 223 217 219 220 228 227 206 204 214 206 207 213 205 203 207 203 205 213 201 193 205 209 216 214 216 231 235 227 226 229 235 240 232 227 226 222 217 215 203 193 200 197 188 204 219 204 191
338 339 340 337 319 301 296 311 328 324 317 318 315 304 276 246 234 235 241 266 279 15 23 13 11 266 218 226 224 202 202 211 199 185 188 189 188 197 204 201 198 204 211 212 207 214 225 217 201 200 202 203 211 207 194 197 198 201 205 198 197 197 193 206 206 207 227 233 226 222 221 230 241 236 233 235 226 219 220 209 199 205 202 189 192 210 214 201
336 338 339 336 319 294 295 313 318 315 316 316 305 286 265 254 238 237 253 261 338 17 344 329 337 316 283 262 250 214 199 204 202 195 195 197 196 197 205 207 201 204 211 205 203 204 213 218 207 198 197 200 209 208 188 188 193 197 200 196 198 198 191 201 205 210 225 225 223 222 219 228 240 234 227 233 234 224 220 211 205 212 207 186 178 197 218 210
336 337 326 314 301 296 309 317 316 314 314 309 294 272 252 246 253 260 257 271 4 5 331 326 328 301 275 258 251 226 205 203 201 200 198 197 203 201 203 209 209 211 216 206 206 206 205 213 207 200 192 191 204 215 201 186 189 197 201 201 206 210 204 203 205 212 222 220 212 213 219 228 234 231 222 225 227 227 228 215 205 213 209 182 169 187 216 215
338 334 318 305 309 328 329 322 318 315 310 299 285 270 251 248 254 252 266 339 350 345 333 323 307 283 268 253 245 231 219 210 200 200 205 202 206 206 200 206 208 210 216 211 204 206 213 218 203 199 198 189 196 212 209 192 190 194 198 207 212 215 219 222 222 221 224 226 211 203 216 230 231 239 236 228 220 215 223 223 207 206 207 191 176 181 204 214
336 331 327 328 338 341 335 325 321 313 305 293 278 265 252 261 263 254 343 4 341 332 332 315 283 265 258 241 236 225 220 228 204 197 207 210 209 211 205 202 205 209 214 212 206 204 214 223 200 192 198 197 194 202 207 203 193 184 196 211 210 212 228 240 232 230 230 232 220 202 209 218 224 226 215 224 228 211 210 218 212 201 200 199 188 178 191 210
329 324 326 325 337 342 336 328 323 308 296 283 276 278 270 274 299 327 360 3 340 328 325 309 286 291 277 240 221 205 198 220 214 201 206 206 206 214 213 203 201 209 215 218 225 219 214 225 203 190 194 195 190 198 207 210 207 190 194 205 204 211 228 243 235 221 218 228 225 211 210 205 206 217 198 202 221 216 205 208 210 205 202 203 196 181 188 203
313 308 312 353 343 339 336 327 317 302 298 287 276 284 291 299 335 353 355 349 333 322 313 298 297 311 302 279 267 223 196 201 205 205 208 199 190 222 228 208 188 205 219 222 232 233 223 228 205 189 190 186 184 197 206 208 215 218 203 195 198 208 210 216 229 221 212 218 220 219 221 211 202 210 204 197 205 213 204 201 208 209 205 205 202 191 189 195
305 302 338 22 349 338 334 319 306 302 304 301 294 299 310 317 338 347 343 337 327 317 303 294 298 303 297 296 304 300 223 220 227 220 214 202 188 42 14 243 144 76 232 226 229 228 223 232 208 181 180 178 179 198 203 196 207 222 220 200 200 215 208 202 215 225 222 220 215 216 220 222 216 212 206 192 191 203 202 196 209 211 199 198 202 194 186 189
312 303 27 17 351 339 329 308 293 303 295 311 337 336 329 328 331 334 337 334 326 316 300 296 301 297 297 302 295 284 286 295 291 256 221 153 89 69 37 5 313 355 292 239 229 228 224 234 223 171 170 182 187 199 205 193 192 208 216 203 195 205 210 207 210 216 226 230 223 221 219 214 207 202 202 187 178 195 202 194 202 215 201 190 194 192 181 181
312 298 8 6 349 337 326 306 299 334 303 344 354 336 339 337 327 331 338 335 323 309 298 295 294 288 291 302 298 299 296 275 282 273 238 111 57 49 27 1 326 297 283 239 219 224 228 236 230 183 175 198 200 195 205 203 194 197 207 205 197 196 201 208 207 203 215 233 232 237 241 182 115 134 201 197 182 185 199 196 189 204 207 189 185 190 181 177
316 324 345 354 346 335 325 313 6 340 323 4 345 331 347 338 328 337 341 340 329 312 303 294 291 287 281 283 286 292 289 266 269 279 259 72 42 22 6 345 321 293 266 229 212 215 239 274 244 208 189 207 205 194 203 209 202 199 206 208 202 198 201 207 205 194 201 218 223 237 246 127 97 113 152 161 189 188 190 197 189 192 204 193 183 186 183 181
334 330 332 352 346 332 325 333 353 342 353 356 335 334 350 338 337 344 340 342 338 322 317 302 297 301 297 299 297 285 283 278 264 259 271 31 47 32 357 337 328 302 249 226 211 200 195 271 251 226 197 201 203 193 198 209 208 203 206 209 208 204 203 209 211 193 193 204 203 212 228 165 115 117 114 96 221 203 173 184 197 191 191 189 185 185 181 178
327 310 329 0 346 329 330 353 349 344 346 341 331 337 346 339 346 348 338 345 351 331 322 312 309 316 309 307 310 298 289 281 263 253 267 302 38 46 353 334 341 328 313 344 276 204 205 224 227 231 208 192 194 191 191 204 211 209 203 204 211 210 203 207 215 206 202 201 195 198 217 184 121 124 166 176 191 187 159 166 186 181 174 181 176 152 129 135
326 315 346 356 341 330 343 350 339 336 337 335 332 335 337 336 352 354 339 341 356 342 325 318 321 321 310 303 303 296 283 273 270 274 288 282 269 62 357 329 343 352 5 348 324 308 246 219 211 222 213 192 190 196 190 195 203 211 206 201 207 211 206 204 208 212 209 195 194 206 199 133 120 144 171 160 153 157 150 152 157 149 141 140 121 94 85 103
331 334 344 348 337 331 342 338 330 330 333 332 331 332 329 328 343 356 342 340 1 351 329 323 328 322 319 319 309 292 283 279 268 263 289 288 273 92 20 322 340 3 344 325 309 297 256 226 221 227 227 214 221 275 248 204 199 205 207 201 202 208 208 206 208 210 206 189 195 215 190 134 135 146 148 145 148 143 133 135 135 131 114 93 88 94 112 134
336 333 341 344 330 328 336 330 330 332 326 322 325 326 324 325 331 340 338 340 8 359 335 324 338 329 330 333 318 302 306 300 276 267 300 309 309 328 284 290 340 0 325 311 298 285 257 230 225 229 236 251 311 337 330 247 210 209 208 204 202 204 206 210 213 205 196 197 197 204 213 171 145 150 160 159 151 134 124 125 118 114 115 110 114 131 150 152
339 328 341 339 319 319 324 321 323 318 308 307 314 312 312 322 327 331 336 331 11 20 355 326 335 332 329 331 321 314 323 325 328 344 349 339 321 302 208 205 24 5 324 312 300 297 262 230 226 226 231 240 254 305 312 275 241 234 220 208 202 202 205 208 213 207 198 210 202 185 203 214 153 152 168 157 137 136 143 128 96 93 111 111 101 95 204 175
328 315 334 333 315 309 308 309 311 306 303 307 308 304 311 320 324 332 335 320 341 41 10 318 325 328 323 323 322 320 329 338 353 354 347 334 320 311 268 168 63 15 340 331 322 316 277 233 234 226 226 234 233 251 283 287 276 263 236 217 206 204 205 206 210 209 203 213 214 180 192 206 184 158 158 142 133 158 155 66 42 58 50 23 22 338 278 260
328 324 329 322 311 306 304 305 306 301 300 298 293 314 326 314 317 333 329 314 324 2 328 299 314 321 317 315 310 301 312 326 328 325 322 319 322 326 341 359 6 357 342 335 348 324 261 228 278 246 234 234 225 226 254 273 267 261 263 247 221 207 203 204 207 207 204 206 204 171 174 200 202 184 152 102 74 357 354 356 333 335 336 326 305 277 285 313
316 316 314 309 307 308 307 305 302 298 297 297 305 325 321 309 316 327 320 309 312 313 305 300 309 314 309 304 297 290 298 307 305 301 301 304 309 311 317 330 335 335 331 334 348 316 269 282 306 246 239 235 221 217 228 241 258 265 258 246 227 210 202 203 205 206 205 203 196 183 179 190 189 204 254 302 271 267 282 285 285 293 295 294 296 295 298 303
313 310 302 297 298 301 304 302 297 297 301 312 318 310 304 307 316 315 308 291 243 254 252 280 296 301 301 301 302 298 297 294 292 292 290 290 291 289 289 296 298 304 316 320 323 313 301 314 257 216 224 232 219 212 218 229 245 251 234 217 215 217 212 208 206 210 213 210 203 198 199 197 190 213 239 246 249 254 262 275 280 282 292 304 302 295 291 292
Height
819 817 815 813 811 809 807 805 803 800 798 796 793 792 790 788 786 785 783 782 781 779 778 776 774 774 772 771 770 769 767 766 763 763 757 745 745 748 747 748 748 751 754 754 754 755 754 755 753 753 754 753 754 750 746 745 742 751 761 770 776 784 788 759 736 738 736 737 736 733 732 738 743 736 731 730 736 743 746 750 751 750 749 751 755 759 765 771
818 816 814 812 810 808 806 805 802 800 798 795 793 791 788 787 785 783 781 780 779 777 776 774 773 772 771 770 769 768 766 763 761 756 745 738 743 745 745 747 748 750 751 752 751 750 751 752 750 751 754 754 752 748 746 744 746 757 764 764 767 778 773 744 733 732 730 734 732 731 732 734 740 738 734 740 748 746 751 755 752 756 755 753 755 759 765 769
818 816 814 812 810 807 806 804 802 800 797 795 792 790 787 785 783 781 779 778 777 776 774 772 771 770 769 769 768 768 766 762 757 745 734 733 739 739 741 745 745 748 749 748 747 747 748 747 748 750 754 756 750 747 748 745 747 752 758 762 763 770 757 733 731 731 728 729 729 732 731 734 736 733 735 743 749 749 753 754 753 761 761 758 758 759 764 769
818 816 813 811 809 807 805 803 801 799 796 794 790 788 786 784 782 779 777 776 775 774 772 771 769 768 768 767 768 767 765 762 748 732 728 729 732 734 738 741 743 746 746 745 746 746 745 745 746 748 753 757 748 745 749 746 745 746 750 755 759 764 753 733 729 729 727 726 728 731 732 736 732 730 736 741 751 754 750 747 748 755 757 758 760 759 762 768
818 816 813 811 809 806 804 802 799 797 795 792 789 787 784 782 780 777 776 774 772 771 770 769 767 767 766 766 767 765 768 762 737 724 728 728 729 732 735 738 741 743 744 744 744 744 744 743 745 749 753 755 749 748 749 740 739 745 743 740 742 747 748 738 728 729 729 727 729 732 734 733 728 732 736 740 751 750 740 737 739 745 751 754 757 759 762 767
818 815 813 811 808 806 803 801 798 796 793 790 787 785 782 780 777 775 774 771 770 769 768 767 766 765 765 765 766 766 767 754 729 726 731 728 731 733 734 737 739 742 742 742 741 741 743 742 747 754 754 753 750 749 747 736 736 748 742 733 732 732 741 741 733 734 731 730 733 732 730 726 731 738 734 737 743 736 728 728 733 739 746 751 754 758 762 766
818 815 813 810 808 805 802 800 797 794 791 788 785 783 780 777 775 773 771 769 768 766 765 764 764 764 764 765 765 764 761 743 725 729 731 730 733 733 735 736 738 742 740 738 738 739 741 744 749 752 753 753 748 744 742 735 735 747 744 734 731 728 736 742 740 739 732 732 731 726 727 729 737 739 733 736 734 728 726 724 729 736 742 750 754 758 761 764
817 815 812 810 807 804 801 798 795 793 790 786 784 781 778 775 772 770 768 766 764 763 762 761 762 762 763 765 762 759 752 736 726 728 728 730 733 732 736 737 739 741 737 735 735 736 740 745 747 747 753 751 743 739 737 738 739 743 744 734 730 729 732 736 738 738 731 729 726 725 732 731 731 732 732 735 730 726 726 725 729 735 742 749 754 757 760 764
817 814 811 809 806 803 800 796 794 791 788 785 782 778 775 772 770 767 765 763 761 761 759 759 760 760 763 763 759 755 740 726 725 727 727 730 731 732 735 736 739 738 735 734 731 734 738 742 743 741 747 744 737 737 734 742 745 738 739 734 731 731 728 729 731 731 729 727 725 730 735 730 723 727 734 730 725 724 724 728 731 737 744 748 752 755 758 762
816 813 811 808 805 802 798 795 792 789 786 783 779 776 773 770 768 765 762 760 759 758 757 758 758 759 763 760 758 752 731 721 725 726 726 729 730 732 733 734 736 736 734 731 729 731 732 736 736 732 738 738 735 735 732 739 739 731 734 733 730 731 726 726 729 727 727 726 725 732 735 728 719 730 740 728 720 722 725 731 733 737 744 746 750 753 756 760
816 813 810 806 804 800 797 794 790 787 784 780 777 774 771 768 765 762 760 758 756 756 756 756 757 759 760 757 754 744 724 721 725 723 726 727 727 729 730 731 732 733 732 729 728 727 728 730 727 731 739 737 735 735 731 729 729 728 733 736 732 730 727 726 728 727 727 728 723 726 732 727 723 733 736 723 717 721 727 734 735 738 742 743 748 751 754 757
815 812 809 805 802 799 795 792 788 785 781 778 775 771 769 766 763 761 758 756 755 754 754 754 756 757 758 755 745 731 722 723 724 723 725 724 725 726 726 729 729 730 729 727 726 725 727 726 725 735 737 733 738 740 732 722 726 730 732 743 740 733 734 729 727 725 726 729 718 721 739 737 732 733 726 716 717 721 727 734 736 739 741 742 745 748 753 754
815 812 808 805 801 797 794 790 786 783 779 775 772 769 767 764 761 759 757 755 754 752 752 753 754 756 758 748 731 723 722 722 723 723 723 722 722 724 725 727 726 728 727 724 724 723 726 725 725 731 728 731 739 733 726 720 727 734 733 743 747 744 742 727 722 724 724 725 711 723 755 750 732 727 719 714 717 723 730 734 736 739 741 743 744 746 750 752
815 812 808 805 801 797 793 789 785 781 776 773 770 768 765 762 760 758 756 755 752 751 751 752 754 757 755 739 721 720 722 721 723 722 721 721 720 721 722 723 725 726 725 723 722 722 724 723 724 728 725 728 728 721 727 731 730 737 740 743 747 752 743 719 715 723 727 722 707 725 758 750 728 721 716 713 715 723 731 734 737 740 742 747 746 746 748 749
815 811 808 804 800 796 792 788 784 779 775 771 768 766 763 761 759 757 756 754 752 751 750 753 754 754 749 734 718 716 719 720 719 718 719 719 717 718 719 720 722 723 724 723 721 721 722 723 726 732 730 725 726 730 738 740 733 736 749 751 746 748 740 716 706 714 724 720 708 727 753 745 724 715 711 711 714 721 728 732 737 740 742 748 749 749 749 747
814 811 807 804 799 795 791 786 782 778 774 769 766 764 761 759 758 757 756 754 753 752 752 754 752 752 747 730 715 713 716 715 714 716 718 717 716 716 717 719 720 721 722 721 720 720 720 723 726 730 730 730 736 741 744 747 742 736 746 752 742 741 740 723 707 703 712 717 715 726 744 742 726 715 711 710 714 721 725 728 732 736 738 744 750 751 752 749
813 810 807 803 799 794 790 785 781 777 772 768 764 762 760 758 757 757 756 755 754 752 753 750 747 751 740 719 714 713 709 709 711 713 715 715 715 714 715 717 717 718 719 720 721 720 721 725 729 730 731 734 736 742 753 758 751 740 740 743 735 731 734 729 717 705 705 716 721 724 733 735 724 717 715 710 712 719 723 725 726 729 734 740 746 749 753 752
812 809 806 803 798 794 789 784 781 776 772 767 763 760 759 757 756 756 755 754 754 754 753 748 747 750 732 714 714 707 700 704 707 709 712 714 714 713 714 715 715 717 722 726 725 724 726 727 731 737 737 736 733 738 754 751 741 738 737 739 736 727 726 725 720 710 707 717 723 726 732 730 720 715 714 710 711 717 720 721 722 724 730 738 743 746 749 752
812 808 805 802 798 793 789 784 780 776 772 766 762 758 756 755 755 755 754 751 751 749 744 740 741 735 719 709 706 701 698 700 703 706 708 711 713 712 713 714 714 720 728 733 731 727 728 732 736 740 738 735 732 731 739 733 724 726 725 730 734 729 722 714 710 703 705 720 727 727 731 728 722 717 713 710 710 715 718 718 719 722 726 733 740 742 745 750
811 807 804 801 797 793 788 784 780 776 773 767 762 756 754 756 753 749 749 748 745 738 729 729 729 720 711 706 700 700 702 701 703 703 704 708 711 712 713 714 717 723 728 731 732 725 726 738 739 735 731 727 725 723 724 723 716 716 718 722 724 725 721 710 708 701 698 719 727 721 724 723 720 718 712 709 710 714 718 718 719 720 723 728 735 740 742 748
810 807 803 800 797 792 788 784 780 777 774 769 764 760 760 765 762 756 753 745 736 731 726 721 720 716 710 705 699 699 703 704 702 700 701 704 707 714 715 715 723 729 725 722 725 722 726 737 730 722 720 716 717 718 719 721 718 716 718 721 719 719 717 706 705 702 697 717 724 715 721 721 715 714 709 705 710 715 715 716 718 718 719 724 732 738 740 747
810 806 802 799 795 791 787 784 781 778 774 770 767 766 767 771 771 768 764 749 730 724 723 716 714 712 705 703 701 700 704 706 704 699 697 700 706 714 714 715 724 726 720 718 722 728 732 731 719 712 711 711 713 715 718 721 720 720 720 725 723 714 713 705 698 698 700 718 725 717 722 721 710 706 703 700 704 708 706 708 711 713 716 721 729 736 739 745
810 805 802 797 793 791 786 784 781 777 775 772 770 770 771 771 771 769 767 756 731 715 713 710 707 706 701 702 699 701 707 705 704 698 692 697 704 707 709 715 720 719 719 718 719 728 732 721 710 705 706 711 715 713 718 722 721 722 720 727 727 713 716 716 704 701 703 712 720 718 721 719 710 706 703 698 695 696 700 702 702 706 710 715 723 730 734 740
810 805 802 797 793 789 785 784 780 776 776 774 772 772 772 772 770 768 764 754 733 708 697 693 694 696 694 693 693 699 705 699 696 693 686 693 700 701 705 709 715 717 714 712 712 717 718 706 698 701 704 710 717 714 716 724 726 723 718 722 724 714 712 713 704 700 702 708 711 717 729 726 715 716 710 699 693 693 698 701 702 702 703 708 718 724 728 734
810 806 802 797 794 788 784 782 779 778 776 771 772 772 773 772 769 769 765 753 730 700 685 682 683 685 681 685 690 691 697 696 689 684 680 686 692 698 702 700 707 715 709 708 711 711 707 693 690 701 705 707 715 715 714 721 725 724 717 713 716 713 708 707 703 703 716 724 711 717 747 741 716 715 713 702 699 698 698 702 704 703 701 706 715 720 724 729
810 806 801 798 794 789 783 779 779 781 774 770 774 773 773 772 769 770 766 754 726 689 680 682 678 679 677 681 684 687 700 697 682 676 676 681 683 688 700 698 698 705 702 702 707 705 698 688 687 699 704 707 713 714 709 712 723 725 712 705 710 711 710 710 708 712 729 733 709 707 740 745 722 713 709 702 702 699 697 702 702 701 703 705 708 713 718 721
809 805 801 798 794 792 787 781 782 780 773 774 775 774 773 770 770 769 764 753 715 675 677 683 677 676 676 675 677 690 701 687 677 676 671 678 680 679 694 697 696 698 690 696 709 701 690 689 691 696 701 706 711 712 704 704 721 721 700 698 708 711 714 715 712 717 721 720 711 701 716 736 731 715 701 698 702 700 699 704 702 699 702 704 704 705 710 714
808 804 801 797 793 793 791 787 784 779 777 778 775 775 773 770 771 767 766 754 701 661 672 680 676 674 672 674 677 683 680 669 679 680 665 673 678 678 692 691 691 695 684 693 709 694 683 691 692 693 702 704 703 702 696 701 716 710 693 695 702 706 712 713 715 720 715 721 730 712 704 728 731 709 696 694 700 705 706 709 705 699 700 704 705 701 703 709
807 803 800 796 791 789 789 787 784 780 780 779 776 776 771 770 770 763 767 749 687 657 671 674 676 678 674 679 681 678 671 665 673 670 662 673 674 675 688 683 682 690 683 686 696 686 677 681 681 685 698 699 693 691 690 698 707 699 692 694 697 701 706 710 717 720 719 730 739 719 707 726 730 712 702 702 703 706 705 703 700 698 699 703 706 701 698 702
805 802 799 796 791 788 787 785 782 780 780 778 777 774 769 769 767 764 766 735 680 665 673 673 678 679 678 685 685 681 676 668 664 662 667 675 674 675 678 675 677 685 685 683 685 680 669 668 672 677 684 686 683 684 685 690 694 693 695 700 706 709 709 713 714 717 731 739 731 717 707 720 732 717 701 699 696 694 695 696 696 696 697 703 708 702 694 696
803 801 798 795 792 790 787 783 780 781 780 778 776 772 768 765 762 765 749 703 675 675 673 675 678 675 678 684 682 680 679 671 665 669 675 675 679 683 681 681 683 687 691 688 685 680 672 671 674 671 670 675 680 683 683 682 685 694 700 707 720 724 721 724 722 725 743 742 722 710 704 714 730 716 693 685 679 677 683 689 693 696 695 698 704 699 691 692
802 799 796 794 792 790 788 783 782 782 780 778 775 769 766 764 760 756 727 689 687 692 682 683 682 676 678 678 675 675 677 675 668 669 675 675 680 682 680 682 683 692 698 691 687 686 680 675 671 669 667 670 682 689 687 686 688 696 703 711 728 736 738 744 739 734 740 731 711 702 705 714 715 699 685 679 672 669 671 674 680 686 685 688 694 695 690 688
800 797 795 793 791 789 788 785 783 782 779 777 774 766 765 768 756 739 717 699 703 703 692 691 689 685 686 683 677 670 670 674 669 668 670 671 677 677 675 672 669 682 689 684 687 691 688 678 667 672 673 667 677 688 694 695 693 699 703 711 726 734 746 756 744 735 734 722 704 695 703 714 706 687 677 674 668 662 660 662 667 670 671 677 684 688 688 685
798 794 792 791 790 788 787 785 782 780 778 775 772 766 766 767 749 728 714 704 704 706 701 699 697 693 688 685 678 666 667 671 664 666 669 669 675 676 674 671 664 669 675 677 682 683 693 691 671 670 673 668 673 676 679 685 690 694 690 698 713 715 727 741 734 732 730 716 704 700 706 712 706 685 665 660 660 656 655 654 657 659 659 665 676 682 685 682
797 793 791 789 789 787 784 784 781 779 778 773 769 767 764 758 741 724 718 714 712 714 712 705 700 696 687 679 671 658 659 665 660 663 668 666 670 669 666 668 663 664 670 677 674 669 683 682 659 656 660 661 672 668 660 674 690 689 681 693 705 696 698 711 709 706 708 710 706 702 702 693 682 669 654 652 654 652 656 653 652 658 656 659 671 677 681 679
796 792 789 788 787 786 784 782 779 778 777 773 771 766 755 744 728 716 719 728 728 725 723 713 697 693 688 676 669 659 655 659 658 662 665 661 662 660 658 660 658 658 662 667 666 664 677 674 649 650 657 654 664 665 656 668 684 685 688 695 688 676 682 701 704 692 696 715 705 691 695 687 677 672 659 657 658 653 657 656 653 657 657 659 665 669 676 675
797 792 789 787 786 785 783 781 780 777 773 772 774 764 746 734 725 721 727 738 739 733 734 727 703 695 691 674 664 660 659 662 659 658 662 661 659 655 651 650 649 651 651 654 656 651 662 669 646 644 661 654 650 660 658 655 663 678 691 685 674 676 681 693 710 708 712 726 706 684 692 694 695 692 668 662 668 659 655 657 655 656 658 660 661 663 669 669
798 791 785 785 786 784 782 781 779 774 772 777 777 765 751 741 738 741 744 746 746 740 740 736 715 703 698 684 669 659 660 664 659 658 660 657 658 656 650 648 648 649 644 646 655 647 649 666 649 636 654 655 646 661 670 659 652 662 670 665 672 695 700 698 712 717 720 728 713 693 689 687 691 688 669 666 671 663 656 656 656 656 656 657 657 658 662 662
797 787 781 783 786 783 781 781 775 772 779 784 777 768 762 754 749 751 752 750 749 745 742 736 723 713 705 698 686 671 666 667 662 661 659 653 657 660 659 659 657 656 650 648 658 650 644 662 657 634 640 652 655 665 675 671 660 657 658 658 666 682 690 694 701 703 709 718 714 705 698 687 674 664 660 662 662 660 659 657 656 652 649 651 651 651 654 659
796 786 779 783 786 783 780 777 772 775 780 777 770 769 767 762 758 755 754 754 753 751 747 738 731 725 714 705 695 679 676 679 673 667 657 651 661 668 668 671 668 663 659 655 657 651 645 658 661 643 640 653 663 662 660 664 665 667 669 669 670 673 675 682 687 687 694 706 708 706 702 683 654 641 646 652 652 653 654 654 656 650 644 645 646 647 650 655
795 786 780 782 785 782 777 772 772 774 773 769 768 770 768 766 764 759 756 758 758 755 751 743 737 731 723 718 709 696 691 687 679 671 657 655 671 679 676 678 675 669 666 663 659 654 653 658 658 653 653 658 656 647 643 647 652 661 667 666 667 672 676 690 697 685 683 693 696 699 700 676 644 634 640 642 644 646 646 647 651 649 643 642 643 645 648 653
794 789 784 784 785 781 776 773 772 770 769 770 771 768 767 766 765 762 760 760 760 758 754 749 741 733 725 721 715 711 705 693 685 678 664 662 678 687 683 680 676 670 668 666 658 650 652 659 658 653 652 651 643 635 637 638 638 648 656 654 656 662 669 688 701 689 683 688 683 686 696 677 646 637 639 639 639 639 640 642 645 645 642 639 640 641 643 648
797 793 786 785 785 780 777 777 774 771 770 771 769 766 766 766 765 764 763 763 763 760 757 754 749 742 735 726 720 716 710 702 694 683 673 674 682 687 686 682 676 670 667 665 658 651 656 666 666 655 644 639 634 630 632 634 636 647 652 647 650 656 658 667 674 673 682 688 683 693 704 681 649 639 640 641 641 637 637 640 642 644 641 639 640 640 640 644
798 791 784 785 786 781 781 782 780 777 774 772 771 768 767 766 767 768 767 766 766 765 762 758 755 754 748 738 731 723 717 711 697 681 681 685 685 687 687 683 679 674 671 673 667 661 664 668 669 669 662 656 653 649 647 644 641 645 647 646 647 648 651 658 659 664 680 681 678 695 704 678 652 646 645 643 643 639 638 639 639 641 641 640 640 641 643 646
796 788 784 786 785 783 784 783 782 781 778 775 775 773 771 769 768 770 770 768 768 769 768 762 759 758 752 743 739 729 719 714 704 692 691 690 685 688 689 685 683 679 677 681 676 669 669 665 666 674 673 671 673 667 657 651 646 644 642 644 647 645 650 660 664 675 686 679 672 683 687 672 657 653 649 645 645 644 640 638 637 638 641 642 643 647 651 652
798 792 790 789 786 784 784 781 781 782 779 779 779 776 775 774 770 770 771 770 770 771 770 767 764 761 756 752 748 737 723 714 707 702 701 697 689 687 689 687 685 683 684 683 676 671 671 665 662 665 661 661 669 663 645 640 645 648 644 643 646 646 647 654 666 677 680 678 679 674 669 670 668 660 656 651 649 649 644 640 642 642 644 647 650 652 653 654
801 798 797 798 794 788 787 785 783 784 781 781 782 778 776 776 773 772 771 771 773 776 773 769 767 765 763 761 756 745 734 721 711 708 710 707 698 690 690 689 686 686 686 681 674 674 678 674 665 662 657 656 662 660 647 641 643 645 644 643 645 645 646 653 663 665 664 678 688 672 662 672 671 662 660 655 650 651 648 644 645 647 648 650 652 652 651 652
807 804 801 803 801 795 793 791 788 787 783 779 780 779 777 777 776 774 774 774 776 780 780 775 771 769 767 768 764 756 747 736 729 730 728 723 713 700 691 688 688 687 685 680 676 677 683 679 667 661 661 658 659 661 655 648 646 643 640 639 640 643 647 652 657 654 656 673 680 667 666 674 666 658 658 652 649 652 649 644 645 648 649 649 651 654 652 649
812 809 804 805 804 798 794 792 789 787 783 779 781 782 779 777 776 774 775 776 777 782 787 785 778 772 769 769 770 768 762 755 753 752 744 736 726 712 701 697 693 688 686 685 682 680 685 682 668 662 663 661 661 663 659 656 654 649 641 635 635 639 642 646 650 648 652 662 661 658 667 669 657 651 650 646 647 648 646 646 648 651 654 654 655 657 654 648
815 814 812 811 807 799 792 790 789 788 782 780 781 780 777 777 776 773 772 774 777 781 785 784 779 773 770 770 772 772 766 762 763 760 750 743 735 726 721 717 708 700 694 690 687 684 686 684 674 669 672 669 664 664 663 662 661 656 650 643 636 634 638 643 646 645 651 658 656 659 673 670 652 643 645 647 650 651 653 656 656 656 657 657 658 658 655 652
819 818 817 817 811 801 794 790 788 787 781 778 779 778 777 776 774 773 772 771 775 778 779 779 777 773 769 767 770 770 763 760 760 755 748 744 738 732 729 724 718 714 705 698 695 690 687 687 681 682 690 682 667 667 668 662 661 664 662 653 643 638 641 642 642 642 648 657 660 669 681 675 656 648 651 654 655 658 661 661 659 658 656 657 659 659 657 656
822 819 817 818 814 804 796 788 784 785 781 778 779 779 777 773 770 773 773 770 770 774 775 776 775 773 769 765 765 764 760 757 753 748 743 740 734 728 724 720 717 717 712 707 703 695 693 695 686 685 697 688 667 665 667 669 678 680 664 653 650 650 647 645 645 645 647 654 665 675 676 666 656 656 660 660 659 660 660 658 658 658 656 656 658 657 656 655